| time (UTC) | temp F | wind direction | speed MPH | gust MPH | rain 1hr in | rain 24hr in | rain mn in | humidity % | barometer mb |
| 20260504100104 | 46 | 63 | 0.0 | 0.0 | 0.00 | 0.00 | 0.00 | 57 | 1001.1 |
| 20260504090117 | 47 | 150 | 0.0 | 2.0 | 0.00 | 0.00 | 0.00 | 57 | 1001.5 |
| 20260504081546 | 47 | 171 | 0.0 | 2.0 | 0.00 | 0.00 | 0.00 | 56 | 1001.6 |
| 20260504050020 | 51 | 205 | 2.0 | 9.0 | 0.00 | 0.00 | 0.00 | 53 | 1003.3 |
| 20260504044533 | 52 | 261 | 3.0 | 8.0 | 0.00 | 0.00 | 0.00 | 52 | 1003.3 |
| 20260504043019 | 52 | 180 | 2.0 | 6.0 | 0.00 | 0.00 | 0.00 | 52 | 1003.4 |
| 20260504041512 | 52 | 32 | 1.0 | 5.0 | 0.00 | 0.00 | 0.00 | 52 | 1003.6 |
| 20260504040010 | 52 | 195 | 2.0 | 7.0 | 0.00 | 0.00 | 0.00 | 52 | 1003.8 |
| 20260504034508 | 52 | 173 | 2.0 | 6.0 | 0.00 | 0.00 | 0.00 | 51 | 1004.0 |
| 20260504033010 | 52 | 222 | 2.0 | 5.0 | 0.00 | 0.00 | 0.00 | 51 | 1003.9 |
| 20260504031508 | 53 | 138 | 2.0 | 6.0 | 0.00 | 0.00 | 0.00 | 49 | 1004.2 |
| 20260504030007 | 52 | 181 | 3.0 | 6.0 | 0.00 | 0.00 | 0.00 | 49 | 1004.2 |
| 20260504024514 | 53 | 203 | 2.0 | 6.0 | 0.00 | 0.00 | 0.00 | 49 | 1004.3 |
| 20260504023006 | 53 | 213 | 2.0 | 8.0 | 0.00 | 0.00 | 0.00 | 48 | 1004.5 |
| 20260504021505 | 54 | 174 | 2.0 | 6.0 | 0.00 | 0.00 | 0.00 | 47 | 1004.5 |
| 20260504020012 | 54 | 190 | 2.0 | 7.0 | 0.00 | 0.00 | 0.00 | 47 | 1004.3 |
| 20260504014505 | 54 | 165 | 2.0 | 6.0 | 0.00 | 0.00 | 0.00 | 48 | 1004.4 |
| 20260504013008 | 55 | 186 | 2.0 | 5.0 | 0.00 | 0.00 | 0.00 | 48 | 1004.4 |
| 20260504011503 | 55 | 134 | 1.0 | 6.0 | 0.00 | 0.00 | 0.00 | 48 | 1004.3 |
| 20260504010002 | 55 | 146 | 2.0 | 8.0 | 0.00 | 0.00 | 0.00 | 46 | 1004.3 |
| 20260504004505 | 55 | 197 | 3.0 | 8.0 | 0.00 | 0.00 | 0.00 | 46 | 1004.2 |
| 20260504003001 | 56 | 205 | 3.0 | 10.0 | 0.00 | 0.00 | 0.00 | 44 | 1004.0 |
| 20260504001615 | 56 | 171 | 1.0 | 5.0 | 0.00 | 0.00 | 0.00 | 44 | 1003.8 |
| 20260504000100 | 57 | 168 | 4.0 | 10.0 | 0.00 | 0.00 | 0.00 | 43 | 1003.7 |
| 20260503234558 | 57 | 206 | 4.0 | 9.0 | 0.00 | 0.00 | 0.00 | 42 | 1003.9 |
| 20260503233057 | 57 | 152 | 4.0 | 9.0 | 0.00 | 0.00 | 0.00 | 43 | 1004.0 |
| 20260503231557 | 57 | 281 | 3.0 | 14.0 | 0.00 | 0.00 | 0.00 | 45 | 1004.1 |
| 20260503230056 | 59 | 336 | 4.0 | 16.0 | 0.00 | 0.00 | 0.00 | 42 | 1004.3 |
| 20260503224555 | 60 | 262 | 4.0 | 12.0 | 0.00 | 0.00 | 0.00 | 39 | 1004.2 |
| 20260503223055 | 60 | 212 | 4.0 | 11.0 | 0.00 | 0.00 | 0.00 | 37 | 1004.1 |
| 20260503221553 | 61 | 264 | 4.0 | 9.0 | 0.00 | 0.00 | 0.00 | 36 | 1004.1 |
| 20260503220107 | 61 | 231 | 4.0 | 11.0 | 0.00 | 0.00 | 0.00 | 37 | 1004.2 |
| 20260503214552 | 60 | 196 | 2.0 | 9.0 | 0.00 | 0.00 | 0.00 | 38 | 1004.2 |
| 20260503213051 | 61 | 232 | 4.0 | 14.0 | 0.00 | 0.00 | 0.00 | 38 | 1004.3 |
| 20260503211604 | 62 | 214 | 5.0 | 17.0 | 0.00 | 0.00 | 0.00 | 37 | 1004.3 |
| 20260503210055 | 63 | 207 | 4.0 | 13.0 | 0.00 | 0.00 | 0.00 | 37 | 1004.3 |
| 20260503204552 | 63 | 216 | 2.0 | 10.0 | 0.00 | 0.00 | 0.00 | 39 | 1004.6 |
| 20260503203042 | 61 | 162 | 1.0 | 7.0 | 0.00 | 0.00 | 0.00 | 40 | 1004.9 |
| 20260503201539 | 61 | 11 | 3.0 | 7.0 | 0.00 | 0.00 | 0.00 | 37 | 1005.1 |
| 20260503200036 | 59 | 232 | 1.0 | 9.0 | 0.00 | 0.00 | 0.00 | 42 | 1005.5 |
| 20260503194532 | 56 | 75 | 0.0 | 3.0 | 0.00 | 0.00 | 0.00 | 46 | 1005.7 |
| 20260503193026 | 55 | 183 | 1.0 | 5.0 | 0.00 | 0.00 | 0.00 | 48 | 1006.0 |
| 20260503191526 | 54 | 186 | 2.0 | 4.0 | 0.00 | 0.00 | 0.00 | 48 | 1006.2 |
| 20260503190024 | 53 | 141 | 1.0 | 4.0 | 0.00 | 0.00 | 0.00 | 49 | 1006.4 |
| 20260503184527 | 54 | 170 | 1.0 | 5.0 | 0.00 | 0.00 | 0.00 | 49 | 1006.4 |
| 20260503183033 | 54 | 131 | 2.0 | 7.0 | 0.00 | 0.00 | 0.00 | 49 | 1006.3 |
| 20260503181528 | 52 | 188 | 1.0 | 5.0 | 0.00 | 0.00 | 0.00 | 52 | 1006.4 |
| 20260503180018 | 50 | 175 | 1.0 | 4.0 | 0.00 | 0.00 | 0.00 | 54 | 1006.5 |
| 20260503174519 | 49 | 127 | 1.0 | 6.0 | 0.00 | 0.00 | 0.00 | 54 | 1006.9 |
| 20260503173036 | 48 | 160 | 1.0 | 4.0 | 0.00 | 0.00 | 0.00 | 57 | 1007.2 |
| 20260503171513 | 48 | 176 | 0.0 | 3.0 | 0.00 | 0.00 | 0.00 | 60 | 1007.6 |